When you browse on this site, cookies collect data to enhance your experience and personalize the content and advertising you see.
Visit our Privacy Policy to learn more. By continuing to use the site, you agree to this use of cookies and data.
  • In Hungary
  • List of Countries
  • For 7 days
  • Water Temperature
  • Weather Map
  • News
  • Weather Widgets
  • user-avatar
    Login

    Hourly Weather Aland

    Today, 7 December, Saturday

    Time Temperature Precipitation Wind Pressure Humidity
    00:00 +21°C° 0 mm 4 mps 716 mmHg 68%
    01:00 +20°C° 0 mm 3 mps 716 mmHg 72%
    02:00 +20°C° 0 mm 3 mps 716 mmHg 76%
    03:00 +19°C° 0 mm 3 mps 716 mmHg 79%
    04:00 +19°C° 0 mm 3 mps 716 mmHg 81%
    05:00 +19°C° 0 mm 2 mps 716 mmHg 82%
    06:00 +20°C° 0 mm 2 mps 716 mmHg 78%
    07:00 +21°C° 0 mm 3 mps 717 mmHg 75%
    08:00 +22°C° 0 mm 3 mps 717 mmHg 72%
    09:00 +24°C° 0 mm 3 mps 717 mmHg 65%
    10:00 +26°C° 0 mm 3 mps 717 mmHg 59%
    11:00 +27°C° 0 mm 4 mps 717 mmHg 51%
    12:00 +28°C° 0 mm 4 mps 716 mmHg 48%
    13:00 +29°C° 0 mm 4 mps 716 mmHg 44%
    14:00 +29°C° 0 mm 4 mps 715 mmHg 41%
    15:00 +28°C° 0 mm 3 mps 715 mmHg 43%
    16:00 +28°C° 0 mm 3 mps 715 mmHg 46%
    17:00 +27°C° 0 mm 2 mps 715 mmHg 47%
    18:00 +26°C° 0 mm 2 mps 716 mmHg 47%
    19:00 +25°C° 0 mm 2 mps 716 mmHg 48%
    20:00 +24°C° 0 mm 2 mps 716 mmHg 49%
    21:00 +24°C° 0 mm 3 mps 716 mmHg 52%
    22:00 +22°C° 0 mm 3 mps 716 mmHg 56%
    23:00 +21°C° 0 mm 3 mps 716 mmHg 59%

    Tomorrow, 8 December, Sunday

    Time Temperature Precipitation Wind Pressure Humidity
    00:00 +21°C° 0 mm 3 mps 716 mmHg 63%
    01:00 +20°C° 0 mm 3 mps 715 mmHg 67%
    02:00 +20°C° 0 mm 3 mps 715 mmHg 71%
    03:00 +20°C° 0 mm 3 mps 715 mmHg 75%
    04:00 +19°C° 0 mm 2 mps 715 mmHg 78%
    05:00 +19°C° 0 mm 2 mps 715 mmHg 81%
    06:00 +20°C° 0 mm 3 mps 716 mmHg 79%
    07:00 +21°C° 0 mm 3 mps 717 mmHg 76%
    08:00 +22°C° 0 mm 3 mps 718 mmHg 73%
    09:00 +25°C° 0 mm 3 mps 717 mmHg 68%
    10:00 +26°C° 0 mm 3 mps 717 mmHg 64%
    11:00 +27°C° 0 mm 3 mps 717 mmHg 59%
    12:00 +28°C° 0 mm 3 mps 716 mmHg 58%
    13:00 +28°C° 0 mm 2 mps 716 mmHg 56%
    14:00 +28°C° 0 mm 2 mps 715 mmHg 54%
    15:00 +28°C° 0 mm 2 mps 715 mmHg 57%
    16:00 +27°C° 0 mm 2 mps 715 mmHg 59%
    17:00 +27°C° 0 mm 2 mps 715 mmHg 62%
    18:00 +27°C° 0.1 mm 2 mps 716 mmHg 63%
    19:00 +26°C° 0.1 mm 2 mps 716 mmHg 65%
    20:00 +26°C° 0.1 mm 2 mps 717 mmHg 67%
    21:00 +25°C° 0.1 mm 2 mps 717 mmHg 68%
    22:00 +25°C° 0.1 mm 2 mps 717 mmHg 70%
    23:00 +25°C° 0.1 mm 2 mps 717 mmHg 72%

    Day after tomorrow, 9 December, Monday

    Time Temperature Precipitation Wind Pressure Humidity
    00:00 +24°C° 0.1 mm 2 mps 716 mmHg 75%
    01:00 +24°C° 0.1 mm 2 mps 716 mmHg 78%
    02:00 +23°C° 0.1 mm 2 mps 716 mmHg 81%
    03:00 +23°C° 0 mm 2 mps 716 mmHg 83%
    04:00 +21°C° 0 mm 2 mps 716 mmHg 86%
    05:00 +21°C° 0 mm 2 mps 716 mmHg 88%
    06:00 +21°C° 0 mm 2 mps 716 mmHg 85%
    07:00 +22°C° 0 mm 3 mps 717 mmHg 82%
    08:00 +24°C° 0 mm 3 mps 718 mmHg 79%
    09:00 +25°C° 0 mm 3 mps 717 mmHg 73%
    10:00 +26°C° 0 mm 3 mps 717 mmHg 66%
    11:00 +27°C° 0 mm 3 mps 717 mmHg 60%
    12:00 +28°C° 0 mm 3 mps 716 mmHg 59%
    13:00 +28°C° 0 mm 2 mps 716 mmHg 57%
    14:00 +28°C° 0 mm 2 mps 715 mmHg 56%
    15:00 +28°C° 0 mm 2 mps 715 mmHg 57%
    16:00 +27°C° 0 mm 2 mps 715 mmHg 58%
    17:00 +27°C° 0 mm 2 mps 715 mmHg 59%
    18:00 +26°C° 0 mm 2 mps 715 mmHg 62%
    19:00 +25°C° 0 mm 2 mps 716 mmHg 65%
    20:00 +24°C° 0 mm 2 mps 716 mmHg 69%
    21:00 +24°C° 0 mm 2 mps 716 mmHg 71%
    22:00 +23°C° 0 mm 2 mps 716 mmHg 73%
    23:00 +22°C° 0 mm 3 mps 716 mmHg 76%

    10 December, Tuesday

    Time Temperature Precipitation Wind Pressure Humidity
    00:00 +21°C° 0 mm 2 mps 715 mmHg 78%
    01:00 +21°C° 0 mm 2 mps 715 mmHg 79%
    02:00 +20°C° 0 mm 2 mps 715 mmHg 81%
    03:00 +20°C° 0 mm 2 mps 715 mmHg 81%
    04:00 +20°C° 0 mm 2 mps 715 mmHg 81%
    05:00 +20°C° 0 mm 2 mps 715 mmHg 82%
    06:00 +21°C° 0 mm 2 mps 715 mmHg 79%
    07:00 +21°C° 0 mm 2 mps 716 mmHg 77%
    08:00 +23°C° 0 mm 2 mps 717 mmHg 74%
    09:00 +24°C° 0 mm 2 mps 716 mmHg 68%
    10:00 +26°C° 0 mm 2 mps 716 mmHg 62%
    11:00 +27°C° 0 mm 2 mps 716 mmHg 56%
    12:00 +28°C° 0 mm 2 mps 715 mmHg 53%
    13:00 +28°C° 0 mm 2 mps 715 mmHg 50%
    14:00 +29°C° 0 mm 2 mps 714 mmHg 47%
    15:00 +28°C° 0 mm 2 mps 714 mmHg 49%
    16:00 +28°C° 0 mm 3 mps 713 mmHg 52%
    17:00 +27°C° 0 mm 3 mps 713 mmHg 54%
    18:00 +26°C° 0 mm 2 mps 714 mmHg 56%
    19:00 +25°C° 0 mm 2 mps 714 mmHg 58%
    20:00 +24°C° 0 mm 2 mps 714 mmHg 61%
    21:00 +24°C° 0 mm 2 mps 714 mmHg 61%
    22:00 +23°C° 0 mm 2 mps 714 mmHg 61%
    23:00 +22°C° 0 mm 3 mps 714 mmHg 62%

    11 December, Wednesday

    Time Temperature Precipitation Wind Pressure Humidity
    00:00 +21°C° 0 mm 3 mps 714 mmHg 66%
    01:00 +21°C° 0 mm 2 mps 714 mmHg 70%
    02:00 +20°C° 0 mm 2 mps 713 mmHg 75%
    03:00 +20°C° 0 mm 2 mps 713 mmHg 77%
    04:00 +20°C° 0 mm 2 mps 713 mmHg 79%
    05:00 +19°C° 0 mm 2 mps 713 mmHg 81%
    06:00 +20°C° 0 mm 2 mps 714 mmHg 78%
    07:00 +21°C° 0 mm 3 mps 715 mmHg 76%
    08:00 +22°C° 0 mm 3 mps 716 mmHg 73%
    09:00 +25°C° 0 mm 3 mps 715 mmHg 67%
    10:00 +26°C° 0 mm 3 mps 715 mmHg 61%
    11:00 +27°C° 0 mm 2 mps 715 mmHg 55%
    12:00 +28°C° 0 mm 2 mps 715 mmHg 51%
    13:00 +29°C° 0 mm 2 mps 714 mmHg 47%
    14:00 +29°C° 0 mm 2 mps 713 mmHg 43%
    15:00 +29°C° 0 mm 2 mps 713 mmHg 44%
    16:00 +28°C° 0 mm 2 mps 713 mmHg 46%
    17:00 +28°C° 0 mm 2 mps 713 mmHg 47%
    18:00 +27°C° 0 mm 2 mps 713 mmHg 49%
    19:00 +26°C° 0 mm 2 mps 713 mmHg 51%
    20:00 +25°C° 0 mm 2 mps 714 mmHg 52%
    21:00 +24°C° 0 mm 3 mps 714 mmHg 54%
    22:00 +24°C° 0 mm 3 mps 714 mmHg 56%
    23:00 +22°C° 0 mm 3 mps 714 mmHg 58%

    12 December, Thursday

    Time Temperature Precipitation Wind Pressure Humidity
    00:00 +21°C° 0 mm 3 mps 713 mmHg 61%
    01:00 +21°C° 0 mm 3 mps 713 mmHg 63%
    02:00 +20°C° 0 mm 3 mps 713 mmHg 66%
    03:00 +20°C° 0 mm 3 mps 713 mmHg 71%
    04:00 +20°C° 0 mm 3 mps 713 mmHg 76%
    05:00 +19°C° 0 mm 3 mps 713 mmHg 81%
    06:00 +20°C° 0 mm 3 mps 714 mmHg 79%
    07:00 +21°C° 0 mm 3 mps 715 mmHg 77%
    08:00 +22°C° 0 mm 3 mps 715 mmHg 75%
    09:00 +25°C° 0 mm 3 mps 715 mmHg 68%
    10:00 +26°C° 0 mm 3 mps 715 mmHg 61%
    11:00 +28°C° 0 mm 4 mps 715 mmHg 53%
    12:00 +28°C° 0 mm 3 mps 714 mmHg 50%
    13:00 +29°C° 0 mm 3 mps 714 mmHg 46%
    14:00 +30°C° 0 mm 2 mps 713 mmHg 42%
    15:00 +29°C° 0 mm 2 mps 713 mmHg 44%
    16:00 +28°C° 0 mm 2 mps 713 mmHg 46%
    17:00 +28°C° 0 mm 2 mps 713 mmHg 47%
    18:00 +27°C° 0 mm 2 mps 713 mmHg 48%
    19:00 +26°C° 0 mm 2 mps 714 mmHg 49%
    20:00 +26°C° 0 mm 2 mps 714 mmHg 49%
    21:00 +25°C° 0 mm 3 mps 714 mmHg 54%
    22:00 +23°C° 0 mm 4 mps 714 mmHg 59%
    23:00 +22°C° 0 mm 4 mps 715 mmHg 63%
    Show more